When you browse on this site, cookies collect data to enhance your experience and personalize the content and advertising you see.
Visit our Privacy Policy to learn more. By continuing to use the site, you agree to this use of cookies and data.
  • In Czech Republic
  • List of Countries
  • For 7 days
  • Water Temperature
  • Weather Map
  • Weather Widgets
  • user-avatar
    Login

    Hourly Weather Abomey

    Today, 5 June, Friday

    Time Temperature Precipitation Wind Pressure Humidity
    00:00 +26°C° 0 mm 1 mps 740 mmHg 83%
    01:00 +26°C° 0.2 mm 1 mps 740 mmHg 85%
    02:00 +25°C° 0.2 mm 1 mps 740 mmHg 87%
    03:00 +25°C° 0.2 mm 1 mps 739 mmHg 90%
    04:00 +25°C° 0.2 mm 1 mps 740 mmHg 90%
    05:00 +25°C° 0.2 mm 1 mps 740 mmHg 91%
    06:00 +25°C° 0.2 mm 1 mps 740 mmHg 91%
    07:00 +27°C° 0 mm 2 mps 740 mmHg 83%
    08:00 +28°C° 0 mm 2 mps 741 mmHg 75%
    09:00 +30°C° 0 mm 3 mps 741 mmHg 67%
    10:00 +33°C° 0 mm 3 mps 741 mmHg 60%
    11:00 +35°C° 0 mm 2 mps 741 mmHg 53%
    12:00 +36°C° 0 mm 2 mps 740 mmHg 46%
    13:00 +36°C° 0 mm 2 mps 740 mmHg 47%
    14:00 +36°C° 0 mm 3 mps 739 mmHg 47%
    15:00 +36°C° 0 mm 3 mps 738 mmHg 47%
    16:00 +34°C° 0 mm 3 mps 738 mmHg 54%
    17:00 +33°C° 0 mm 4 mps 739 mmHg 61%
    18:00 +30°C° 0 mm 4 mps 739 mmHg 68%
    19:00 +29°C° 0.2 mm 3 mps 740 mmHg 73%
    20:00 +27°C° 0.2 mm 3 mps 740 mmHg 79%
    21:00 +26°C° 0.2 mm 3 mps 740 mmHg 85%
    22:00 +26°C° 0 mm 2 mps 740 mmHg 87%
    23:00 +26°C° 0 mm 2 mps 741 mmHg 89%

    Tomorrow, 6 June, Saturday

    Time Temperature Precipitation Wind Pressure Humidity
    00:00 +25°C° 0 mm 1 mps 741 mmHg 91%
    01:00 +25°C° 0 mm 1 mps 740 mmHg 92%
    02:00 +25°C° 0 mm 1 mps 740 mmHg 93%
    03:00 +25°C° 0 mm 1 mps 740 mmHg 94%
    04:00 +25°C° 0 mm 1 mps 740 mmHg 94%
    05:00 +25°C° 0 mm 1 mps 741 mmHg 95%
    06:00 +25°C° 0 mm 1 mps 741 mmHg 95%
    07:00 +26°C° 0 mm 2 mps 741 mmHg 86%
    08:00 +28°C° 0 mm 2 mps 742 mmHg 77%
    09:00 +30°C° 0 mm 3 mps 742 mmHg 68%
    10:00 +33°C° 0 mm 3 mps 742 mmHg 62%
    11:00 +34°C° 0 mm 3 mps 741 mmHg 55%
    12:00 +36°C° 0 mm 2 mps 741 mmHg 49%
    13:00 +35°C° 0.6 mm 3 mps 740 mmHg 53%
    14:00 +34°C° 0.6 mm 3 mps 740 mmHg 56%
    15:00 +34°C° 0.6 mm 3 mps 739 mmHg 60%
    16:00 +31°C° 0.4 mm 3 mps 739 mmHg 66%
    17:00 +30°C° 0.4 mm 2 mps 739 mmHg 72%
    18:00 +29°C° 0.4 mm 2 mps 739 mmHg 78%
    19:00 +28°C° 0.2 mm 2 mps 739 mmHg 81%
    20:00 +27°C° 0.2 mm 2 mps 740 mmHg 84%
    21:00 +26°C° 0.2 mm 2 mps 740 mmHg 87%
    22:00 +26°C° 0.3 mm 2 mps 740 mmHg 89%
    23:00 +25°C° 0.3 mm 2 mps 740 mmHg 91%

    Day after tomorrow, 7 June, Sunday

    Time Temperature Precipitation Wind Pressure Humidity
    00:00 +25°C° 0.3 mm 1 mps 740 mmHg 93%
    01:00 +25°C° 0 mm 1 mps 740 mmHg 94%
    02:00 +25°C° 0 mm 1 mps 740 mmHg 95%
    03:00 +25°C° 0 mm 1 mps 740 mmHg 95%
    04:00 +24°C° 0 mm 1 mps 740 mmHg 95%
    05:00 +24°C° 0 mm 2 mps 740 mmHg 96%
    06:00 +24°C° 0 mm 2 mps 740 mmHg 96%
    07:00 +26°C° 0 mm 2 mps 741 mmHg 87%
    08:00 +28°C° 0 mm 2 mps 741 mmHg 79%
    09:00 +30°C° 0 mm 3 mps 742 mmHg 70%
    10:00 +31°C° 0 mm 2 mps 741 mmHg 62%
    11:00 +34°C° 0 mm 2 mps 741 mmHg 55%
    12:00 +36°C° 0 mm 2 mps 740 mmHg 47%
    13:00 +35°C° 0 mm 2 mps 740 mmHg 48%
    14:00 +35°C° 0 mm 2 mps 739 mmHg 50%
    15:00 +35°C° 0 mm 2 mps 739 mmHg 51%
    16:00 +31°C° 0.6 mm 2 mps 739 mmHg 61%
    17:00 +29°C° 0.6 mm 3 mps 739 mmHg 72%
    18:00 +27°C° 0.6 mm 4 mps 739 mmHg 82%
    19:00 +26°C° 0.1 mm 3 mps 739 mmHg 85%
    20:00 +26°C° 0.1 mm 3 mps 740 mmHg 87%
    21:00 +25°C° 0.1 mm 3 mps 740 mmHg 89%
    22:00 +25°C° 0 mm 3 mps 740 mmHg 90%
    23:00 +25°C° 0 mm 2 mps 740 mmHg 91%

    8 June, Monday

    Time Temperature Precipitation Wind Pressure Humidity
    00:00 +25°C° 0 mm 2 mps 740 mmHg 92%
    01:00 +25°C° 0 mm 2 mps 739 mmHg 93%
    02:00 +24°C° 0 mm 2 mps 739 mmHg 94%
    03:00 +24°C° 0 mm 2 mps 739 mmHg 95%
    04:00 +24°C° 0 mm 2 mps 739 mmHg 95%
    05:00 +24°C° 0 mm 2 mps 739 mmHg 95%
    06:00 +24°C° 0 mm 2 mps 739 mmHg 95%
    07:00 +26°C° 0 mm 2 mps 740 mmHg 86%
    08:00 +28°C° 0 mm 2 mps 740 mmHg 77%
    09:00 +30°C° 0 mm 2 mps 741 mmHg 68%
    10:00 +31°C° 0 mm 3 mps 740 mmHg 61%
    11:00 +34°C° 0 mm 3 mps 740 mmHg 55%
    12:00 +36°C° 0 mm 3 mps 740 mmHg 48%
    13:00 +35°C° 0.3 mm 3 mps 739 mmHg 51%
    14:00 +34°C° 0.3 mm 3 mps 738 mmHg 55%
    15:00 +33°C° 0.3 mm 3 mps 738 mmHg 58%
    16:00 +32°C° 1.5 mm 4 mps 738 mmHg 66%
    17:00 +29°C° 1.5 mm 4 mps 738 mmHg 75%
    18:00 +27°C° 1.5 mm 4 mps 738 mmHg 83%
    19:00 +27°C° 0.6 mm 4 mps 739 mmHg 85%
    20:00 +26°C° 0.6 mm 3 mps 740 mmHg 88%
    21:00 +26°C° 0.6 mm 3 mps 740 mmHg 90%
    22:00 +26°C° 0 mm 3 mps 740 mmHg 91%
    23:00 +26°C° 0 mm 3 mps 739 mmHg 91%

    9 June, Tuesday

    Time Temperature Precipitation Wind Pressure Humidity
    00:00 +25°C° 0 mm 3 mps 739 mmHg 91%
    01:00 +25°C° 0 mm 2 mps 738 mmHg 92%
    02:00 +25°C° 0 mm 2 mps 738 mmHg 93%
    03:00 +25°C° 0 mm 1 mps 738 mmHg 93%
    04:00 +25°C° 0 mm 1 mps 738 mmHg 94%
    05:00 +25°C° 0 mm 1 mps 739 mmHg 94%
    06:00 +25°C° 0 mm 1 mps 739 mmHg 94%
    07:00 +26°C° 0 mm 2 mps 739 mmHg 89%
    08:00 +27°C° 0 mm 2 mps 740 mmHg 84%
    09:00 +28°C° 0 mm 3 mps 740 mmHg 78%
    10:00 +29°C° 0 mm 3 mps 740 mmHg 73%
    11:00 +31°C° 0 mm 3 mps 740 mmHg 67%
    12:00 +33°C° 0 mm 3 mps 739 mmHg 62%
    13:00 +33°C° 0 mm 3 mps 739 mmHg 61%
    14:00 +34°C° 0 mm 3 mps 738 mmHg 60%
    15:00 +34°C° 0 mm 3 mps 738 mmHg 59%
    16:00 +31°C° 0.9 mm 3 mps 738 mmHg 66%
    17:00 +30°C° 0.9 mm 3 mps 738 mmHg 74%
    18:00 +28°C° 0.9 mm 3 mps 738 mmHg 81%
    19:00 +27°C° 0.1 mm 3 mps 739 mmHg 84%
    20:00 +27°C° 0.1 mm 2 mps 739 mmHg 86%
    21:00 +26°C° 0.1 mm 2 mps 739 mmHg 89%
    22:00 +26°C° 0 mm 2 mps 739 mmHg 90%
    23:00 +25°C° 0 mm 2 mps 739 mmHg 92%

    10 June, Wednesday

    Time Temperature Precipitation Wind Pressure Humidity
    00:00 +25°C° 0 mm 2 mps 739 mmHg 93%
    01:00 +25°C° 0 mm 2 mps 739 mmHg 93%
    02:00 +25°C° 0 mm 2 mps 739 mmHg 94%
    03:00 +25°C° 0 mm 2 mps 739 mmHg 94%
    04:00 +25°C° 0.1 mm 2 mps 739 mmHg 94%
    05:00 +25°C° 0.1 mm 2 mps 739 mmHg 94%
    06:00 +25°C° 0.1 mm 2 mps 739 mmHg 94%
    07:00 +26°C° 0 mm 2 mps 740 mmHg 87%
    08:00 +28°C° 0 mm 3 mps 740 mmHg 79%
    09:00 +30°C° 0 mm 4 mps 741 mmHg 71%
    10:00 +31°C° 0.1 mm 3 mps 740 mmHg 67%
    11:00 +33°C° 0.1 mm 3 mps 740 mmHg 62%
    12:00 +34°C° 0.1 mm 3 mps 740 mmHg 58%
    13:00 +34°C° 0.1 mm 3 mps 739 mmHg 59%
    14:00 +34°C° 0.1 mm 4 mps 739 mmHg 59%
    15:00 +33°C° 0.1 mm 4 mps 738 mmHg 60%
    16:00 +32°C° 0 mm 4 mps 738 mmHg 65%
    17:00 +30°C° 0 mm 4 mps 738 mmHg 70%
    18:00 +28°C° 0 mm 3 mps 738 mmHg 75%
    19:00 +28°C° 0 mm 3 mps 738 mmHg 78%
    20:00 +27°C° 0 mm 3 mps 739 mmHg 81%
    21:00 +26°C° 0 mm 3 mps 739 mmHg 84%
    22:00 +26°C° 0 mm 3 mps 739 mmHg 86%
    23:00 +26°C° 0 mm 2 mps 739 mmHg 88%
    Show more